TimeEDT,TemperatureF,Dew PointF,Humidity,Sea Level PressureIn,VisibilityMPH,Wind Direction,Wind SpeedMPH,Gust SpeedMPH,PrecipitationIn,Events,Conditions,WindDirDegrees,DateUTC
12:51 AM,52.0,42.1,69,29.69,10.0,Variable,6.9,-,N/A,,Scattered Clouds,0,2012-10-16 04:51:00
1:51 AM,51.1,41.0,68,29.71,10.0,NW,13.8,-,N/A,,Mostly Cloudy,310,2012-10-16 05:51:00
2:51 AM,48.9,37.0,64,29.73,10.0,WNW,9.2,-,N/A,,Mostly Cloudy,290,2012-10-16 06:51:00
3:51 AM,48.0,37.0,66,29.72,10.0,NW,10.4,-,N/A,,Overcast,310,2012-10-16 07:51:00
4:51 AM,46.0,35.1,66,29.73,10.0,NW,15.0,-,N/A,,Mostly Cloudy,320,2012-10-16 08:51:00
5:51 AM,45.0,36.0,71,29.75,10.0,WNW,15.0,21.9,N/A,,Mostly Cloudy,300,2012-10-16 09:51:00
6:51 AM,43.0,35.1,74,29.77,10.0,WNW,11.5,24.2,N/A,,Scattered Clouds,290,2012-10-16 10:51:00
7:51 AM,44.1,35.1,71,29.79,10.0,NW,12.7,-,N/A,,Mostly Cloudy,310,2012-10-16 11:51:00
8:51 AM,43.0,34.0,71,29.81,10.0,WNW,15.0,28.8,N/A,,Mostly Cloudy,300,2012-10-16 12:51:00
9:51 AM,44.6,33.8,66,29.83,10.0,WNW,19.6,26.5,N/A,,Mostly Cloudy,290,2012-10-16 13:51:00
10:51 AM,46.0,32.0,58,29.84,10.0,NW,12.7,24.2,N/A,,Mostly Cloudy,310,2012-10-16 14:51:00
11:51 AM,46.9,32.0,56,29.85,10.0,NW,20.7,28.8,N/A,,Mostly Cloudy,310,2012-10-16 15:51:00
12:51 PM,48.9,34.0,56,29.84,10.0,WNW,19.6,25.3,N/A,,Mostly Cloudy,300,2012-10-16 16:51:00
1:51 PM,51.1,35.1,54,29.81,10.0,NW,12.7,25.3,N/A,,Mostly Cloudy,310,2012-10-16 17:51:00
2:51 PM,53.1,36.0,52,29.81,10.0,WNW,18.4,26.5,N/A,,Scattered Clouds,300,2012-10-16 18:51:00
3:51 PM,52.0,36.0,54,29.82,10.0,NW,18.4,23.0,N/A,,Scattered Clouds,310,2012-10-16 19:51:00
4:51 PM,52.0,35.1,53,29.82,10.0,NW,13.8,18.4,N/A,,Mostly Cloudy,310,2012-10-16 20:51:00
5:51 PM,48.9,34.0,56,29.84,10.0,NW,15.0,-,N/A,,Scattered Clouds,310,2012-10-16 21:51:00
6:51 PM,46.0,33.1,61,29.87,10.0,WNW,10.4,-,N/A,,Scattered Clouds,290,2012-10-16 22:51:00
7:51 PM,45.0,33.1,63,29.88,10.0,WNW,8.1,-,N/A,,Partly Cloudy,290,2012-10-16 23:51:00
8:51 PM,45.0,33.1,63,29.91,10.0,West,3.5,-,N/A,,Mostly Cloudy,270,2012-10-17 00:51:00
9:51 PM,44.1,33.1,65,29.93,10.0,WNW,4.6,-,N/A,,Scattered Clouds,300,2012-10-17 01:51:00
10:51 PM,39.9,34.0,79,29.94,10.0,Calm,Calm,-,N/A,,Clear,0,2012-10-17 02:51:00
11:51 PM,36.0,33.1,89,29.94,10.0,West,5.8,-,N/A,,Partly Cloudy,280,2012-10-17 03:51:00